Location: St Andrew
(49.4460°N, 2.5750°W)
Time: 17:04:04
(UTC+01:00)

Daily predictions for brighter satellites

Satellite Brightness Start Highest point End
(mag) Time Altitude Azimuth Time Altitude Azimuth Time Altitude Azimuth
Cosmos 2285 Rocket 4.0 21:50:45 10° SSW 21:57:04 79° ESE 22:03:24 10° NNE
NOSS 3-2 (A) 4.1 21:51:13 10° NW 21:58:36 80° NE 22:06:47 10° SE
Cosmos 1315 Rocket 3.3 21:55:02 10° SSW 21:59:05 69° WNW 22:03:13 10° N
Cosmos 1844 4.0 21:55:31 10° S 22:01:01 51° ESE 22:06:35 10° NE
Cosmos 1110 Rocket 4.2 22:01:23 10° NNW 22:06:33 73° WSW 22:11:43 10° SSE
S3M 4.3 22:04:01 10° SSE 22:10:08 52° E 22:16:19 10° NNE
Iridium 81 4.0 22:08:21 10° S 22:10:54 58° E 22:13:58 10° N
IGS 5A 4.5 22:07:52 10° SE 22:11:36 34° ENE 22:15:22 10° N
ATLAS 5 CENTAUR R/B 3.5 22:10:50 10° SE 22:13:00 13° ESE 22:15:14 10° E
SL-08 RB Rocket 4.1 22:08:32 10° S 22:13:11 68° WSW 22:17:52 10° NNW
Cosmos 1238 Rocket 3.0 22:10:23 10° SSW 22:13:17 53° WNW 22:16:26 10° N
SPOT 5 3.2 22:09:21 10° SSE 22:14:25 65° ENE 22:19:43 10° N
Aureole 1 Rocket 4.2 22:12:03 10° SW 22:15:20 41° WNW 22:19:29 10° NNE
ATLAS 2AS CENTAUR R/B 3.1 22:09:55 10° SSW 22:17:49 77° SE 22:25:57 10° NE
Meteor 1-24 Rocket 4.1 22:11:55 10° SSW 22:17:57 76° WNW 22:23:58 10° N
Timation 1 Rocket 4.3 22:12:37 10° SSW 22:18:33 73° ESE 22:24:32 10° NNE
Cosmos 1331 Rocket 4.3 22:14:01 10° NNW 22:19:10 65° WSW 22:24:21 10° S
CARTOSAT-1 4.3 22:15:34 10° SE 22:19:36 40° ENE 22:23:41 10° N
Lacrosse 5 1.9 22:14:52 10° SW 22:19:57 87° NW 22:25:03 10° NE
Cosmos 2082 Rocket 3.2 22:16:23 10° NNW 22:21:42 37° NE 22:26:59 10° ESE
Cosmos 1833 Rocket 3.5 22:17:40 10° NNW 22:23:00 41° NE 22:28:18 10° ESE
SPOT 1/Viking Rocket 3.6 22:18:39 10° SSE 22:23:46 74° ENE 22:28:55 10° NNW
H-2A R/B 2.7 22:18:41 10° S 22:23:55 58° W 22:29:18 10° NNW
NOSS 3-2 (C) 4.1 22:16:56 10° NW 22:24:20 84° NE 22:32:29 10° SE
Cosmos-2242 4.1 22:20:17 10° NNW 22:24:28 44° W 22:28:38 10° SSW
Cosmos 494 Rocket 4.0 22:20:28 10° SSW 22:25:42 78° ESE 22:31:01 10° NNE
KORONAS-FOTON 3.8 22:21:53 10° S 22:25:47 78° E 22:29:44 10° NNE
Cosmos 1346 Rocket 4.3 22:23:02 10° NNW 22:26:43 35° W 22:30:25 10° SSW
SL-14 R/B 4.0 22:23:21 10° SSE 22:26:55 35° E 22:30:33 10° NNE
CZ-2C R/B 4.0 22:27:10 10° NE 22:31:19 22° E 22:35:02 11° SE
Cosmos 1553 Rocket 3.9 22:26:46 10° S 22:32:49 83° E 22:38:57 10° N
Helios 1B rocket 2.9 22:37:00 10° NNE 22:40:56 43° E 22:44:38 11° S
Helios 1A 3.1 22:38:31 10° S 22:42:42 76° WSW 22:46:57 10° NNW
SL-27 R/B 4.0 22:39:41 10° N 22:42:53 27° ENE 22:45:45 12° ESE
Cosmos 1842 Rocket 3.7 22:38:52 10° NNW 22:43:13 73° W 22:47:33 10° S
DMSP B5D2-2 4.1 22:41:24 10° NNE 22:46:42 89° ESE 22:51:55 10° SSW
Cosmos 1386 Rocket 4.5 22:41:49 10° N 22:47:57 90° N 22:53:50 11° S
Cosmos 1302 Rocket 4.3 22:42:44 10° NNW 22:48:00 65° WSW 22:52:53 12° S
Landsat 7 3.9 22:45:48 11° S 22:50:22 80° WSW 22:55:10 10° NNW
Cosmos 1626 3.0 22:47:55 15° SSE 22:50:29 33° E 22:53:52 10° NNE
CENTAUR R/B 3.3 22:42:46 10° NW 22:50:29 70° NE 22:58:45 11° SE
ERS-1 Rocket 4.0 22:47:49 10° S 22:52:35 42° W 22:57:23 10° NNW
NOSS 2-2 (E) 4.4 22:49:57 12° S 22:52:52 28° ESE 22:56:40 10° ENE
Cosmos 2315 Rocket 4.4 22:47:43 12° SSE 22:53:16 47° E 22:59:20 10° NNE
Cosmos 1340 3.8 22:50:39 10° NNW 22:54:14 40° W 22:57:47 10° SSW
Spot 1 4.2 22:50:57 14° SSE 22:54:43 79° ENE 22:59:26 10° NNW
NOSS 3-4 (A) 3.7 22:49:13 10° SSW 22:55:05 47° ESE 23:01:15 10° NE
NOSS 3-4 (C) 3.7 22:49:20 10° SSW 22:55:11 47° ESE 23:01:20 10° NE
Cosmos 2251 Rocket 3.5 22:58:07 10° SSW 23:03:28 84° ESE 23:08:49 10° NNE
Cosmos 1992 Rocket 4.1 22:58:59 10° NNW 23:04:13 68° ENE 23:08:16 17° SE
Terra 1.9 23:05:51 15° S 23:09:47 78° WSW 23:14:35 10° NNW
Cosmos 1455 3.1 23:08:27 10° N 23:11:58 36° ENE 23:14:13 19° SE
Cosmos 1300 3.4 23:09:37 10° NNW 23:13:20 48° W 23:16:30 13° SSW
Cosmos 2221 2.8 23:09:49 10° NNW 23:14:07 65° W 23:17:34 15° S
Iridium 67 2.3 23:15:01 10° N 23:16:35 79° W 23:16:35 79° W
Okean 3 Rocket 3.7 23:14:47 18° S 23:17:55 58° E 23:22:15 10° NNE
Cosmos 1726 4.5 23:16:37 10° NW 23:19:22 19° W 23:22:06 10° SW
RESURS DK-1 3.3 23:18:31 21° SSE 23:20:24 30° ESE 23:24:03 10° NE
CZ-2C R/B 3.4 23:16:21 16° S 23:21:11 77° WSW 23:26:56 10° NNW
Cosmos 2278 Rocket 2.2 23:16:11 10° SSW 23:21:52 88° ESE 23:27:35 10° NNE
NOSS 2-2 (D) 3.8 23:20:39 15° S 23:23:32 43° ESE 23:27:48 10° NE
Nimbus 7 Rocket 4.5 23:17:51 10° NNE 23:23:52 71° ESE 23:29:17 13° S
Cosmos 1328 Rocket 4.4 23:22:56 10° N 23:27:01 38° ENE 23:29:38 19° SE
Cosmos 2228 Rocket 4.5 23:23:42 10° N 23:27:33 28° ENE 23:30:18 16° ESE
SL-8 R/B 3.6 23:25:19 10° WSW 23:30:08 72° S 23:34:58 10° E
Meteor 1-29 3.3 23:28:26 10° N 23:31:49 63° WNW 23:34:31 15° SSW
ATLAS 3B R/B 3.9 23:28:02 10° WNW 23:33:29 28° WSW 23:38:22 12° SSW
Iridium 75 4.3 23:31:43 10° NNW 23:33:31 37° W 23:33:43 35° WSW
Cosmos 1461 3.3 23:31:01 10° SW 23:35:43 82° NW 23:40:32 10° NE
Cosmos 1328 3.8 23:34:47 18° SSW 23:37:40 80° W 23:41:39 10° N
Spot 4 3.9 23:35:43 22° SSE 23:38:56 81° ENE 23:43:49 10° NNW
SAR-Lupe-4 3.7 23:40:23 27° SSE 23:42:11 66° ENE 23:45:46 10° N
COSMOS 2487 4.3 23:42:45 10° N 23:45:41 24° ENE 23:47:50 14° ESE
Meteor 2-2 Rocket 4.3 23:40:07 10° NNW 23:45:46 76° W 23:49:42 20° S
NOSS 2-2 (C) 3.3 23:46:03 12° SSW 23:49:35 73° SE 23:54:10 10° NE
Cosmos 2369 Rocket 4.0 23:49:38 13° ESE 23:51:32 15° E 23:54:40 10° ENE
Cosmos 1441 Rocket 3.2 23:48:44 10° N 23:52:33 70° ENE 23:54:18 30° SSE
